Zurück zum Katalog

STARLINK-5674

AktivKommunikationVLEO
NORAD 55465·PAYLOAD·🇺🇸 United States

Gestartet Feb 2, 2023 von Cape Canaveral Space Force Station

Loading…

Nächste Überflüge (nächste 24 Stunden)

TLE

AktuellSource: CelesTrak SupGP

Epoche: Sep 15, 2026, 02:26 UTC

1 55465C 23015S   26258.10187500  .00028067  00000+0  10163-2 0  2584
2 55465  43.0010 338.8639 0001595 266.3840  36.3079 15.27574637    10

Verfolge STARLINK-5674 in Echtzeit mit AllMySat

Download on the App Store